Regional Weather Roundup
Issued by NWS

Home | Current Version | Previous Version | Graphics & Text | Print | Product List | Glossary On
Versions: 1 2 3 4 5 6 7 8 9 10 11 12 13 14 15 16 17 18 19 20 21 22 23 24 25 26 27 28 29 30 31 32 33 34 35 36 37 38 39 40 41 42 43 44 45 46 47 48 49 50
000
ASUS43 KMKX 210711
RWRWI

WISCONSIN REGIONAL WEATHER ROUNDUP
NATIONAL WEATHER SERVICE MILWAUKEE/SULLIVAN WI
200 AM CDT FRI JUL 21 2017

NOTE: "FAIR" INDICATES FEW OR NO CLOUDS BELOW 12,000 FEET WITH NO
SIGNIFICANT WEATHER AND/OR OBSTRUCTIONS TO VISIBILITY.

WIZ001-002-006>008-014>016-023>028-210800-
NORTHWEST WISCONSIN

CITY           SKY/WX    TMP DP  RH WIND       PRES   REMARKS
SUPERIOR ARPT  NOT AVBL
ASHLAND        CLEAR     60  59  96 SW5       29.96F
HAYWARD        PTCLDY    59  57  93 CALM      29.99S
SIREN          PTCLDY    65  64  95 CALM      29.98R
CUMBERLAND     FOG       59  59 100 CALM      30.00R VSB 1/4
RICE LAKE      FOG       62  62  97 CALM      30.00S VSB 1/4
CHETEK         MOCLDY    62  62 100 CALM      29.99S
LADYSMITH      CLEAR     63  62  96 CALM      30.02S
EAU CLAIRE     FOG       62  62 100 CALM      29.97S VSB 1/4
MENOMONIE      CLEAR     65  64  97 CALM      29.98S FOG
NEW RICHMOND     N/A     64  64  99 CALM      29.98S
OSCEOLA        CLEAR     63  63 100 E3        29.99S FOG
$$

WIZ003>005-009-010-017-018-210800-
NORTH CENTRAL WISCONSIN

CITY           SKY/WX    TMP DP  RH WIND       PRES   REMARKS
MANITOWISH WTR FOG       57  57 100 CALM      30.00F VSB 1/2
ARBOR VITAE    CLEAR     62  60  93 CALM      30.00S
WOODRUFF       CLEAR     62  60  93 CALM      30.00S
RHINELANDER    FOG       58  58 100 CALM      30.01F VSB 1/4
EAGLE RIVER    FOG       57  57 100 CALM      30.00F VSB 1/2
LAND O LAKES   CLEAR     56  56 100 CALM      30.02S FOG
PHILLIPS       PTCLDY    60  60 100 CALM      30.00S FOG
TOMAHAWK         N/A     56  55  96 CALM      30.02R
MEDFORD        CLEAR     62  61  99 CALM      30.01R FOG
MERRILL        CLEAR     60  60 100 CALM      30.01R FOG
$$

WIZ029-030-035-036-043>047-210800-
CENTRAL WISCONSIN

CITY           SKY/WX    TMP DP  RH WIND       PRES   REMARKS
WAUSAU         CLEAR     68  65  90 N5        29.99R
MOSINEE        CLEAR     68  64  88 CALM      30.01R
MARSHFIELD     CLEAR     63  60  90 CALM      30.00R FOG
STEVENS POINT  CLEAR     62  62 100 CALM      30.01R
WAUPACA        CLEAR     65  65  97 CALM      29.99R
WAUTOMA        CLEAR     64  63  96 CALM      30.00S
WISC RAPIDS    FOG       64  63  96 CALM      30.01R VSB 3/4
CAMP DOUGLAS   FOG       61  61 100 CALM      30.00S VSB 1
$$

WIZ011>013-019>022-031-037>040-048>050-210800-
NORTHEAST WISCONSIN

CITY           SKY/WX    TMP DP  RH WIND       PRES   REMARKS
ANTIGO         CLEAR     60  59  97 CALM      30.02R
SHAWANO        CLEAR     68  64  86 CALM      29.99R
OCONTO         CLEAR     63  63  99 CALM      29.95F
STURGEON BAY     N/A     70  62  76 NE6       29.96F
GREEN BAY      CLEAR     66  66 100 S5        29.98R
MANITOWOC      CLEAR     70  67  90 W8        29.98R
APPLETON       CLEAR     66  63  88 W8        29.97R
CLINTONVILLE   CLEAR     64  64 100 CALM      29.99R
OSHKOSH        CLEAR     69  65  86 CALM      29.97R
$$

WIZ032>034-041-042-053>061-210800-
SOUTHWEST WISCONSIN

CITY           SKY/WX    TMP DP  RH WIND       PRES   REMARKS
LA CROSSE      CLOUDY    72  70  93 CALM      29.99R
SPARTA         CLOUDY    60  60 100 CALM      30.02R FOG
VIROQUA        CLOUDY    70  69  96 SE5       30.02F
BOSCOBEL       FOG       70  69  97 CALM      30.00F VSB 1/4
PRAIRIE DU CHI CLOUDY    69  67  95 CALM      29.98F
PLATTEVILLE    CLOUDY    74  74  98 CALM      30.00F
$$

WIZ056-057-062-063-064-067-068-210800-
SOUTH CENTRAL WISCONSIN

CITY           SKY/WX    TMP DP  RH WIND       PRES   REMARKS
REEDSBURG      CLOUDY    66  66 100 CALM      30.00S FOG
BARABOO/DELLS  CLOUDY    65  64  96 CALM      30.00S FOG
LONE ROCK      FOG       69  67  93 SW3       29.99F VSB 1/4
MINERAL POINT  CLOUDY    70  70 100 CALM      30.01S
MADISON        CLOUDY    68  67  96 N5        29.99F
MIDDLETON      CLOUDY    67  67 100 CALM      30.00F
WATERTOWN      CLOUDY    66  66 100 S3        30.00R FOG
MONROE         CLOUDY    73  68  83 NE5       29.99F
JANESVILLE     MOCLDY    72  72 100 CALM      29.99R FOG
$$

WIZ051-052-058>065-066-070>072-210800-
SOUTHEAST WISCONSIN

CITY           SKY/WX    TMP DP  RH WIND       PRES   REMARKS
MILWAUKEE      MOCLDY    75  71  87 W5        29.98R
WAUKESHA       CLOUDY    68  68 100 CALM      30.01R
MILWAUKEE/TIMM CLEAR     70  66  88 CALM      29.99S
RACINE         CLOUDY    69  68  96 W3        30.00R
KENOSHA        CLOUDY    69  68  96 W3        29.99R
FOND DU LAC    CLEAR     68  65  90 CALM      29.99R
SHEBOYGAN      CLEAR     67  67 100 CALM      29.97S FOG
WEST BEND      CLEAR     64  64 100 CALM      29.99S FOG
JUNEAU           N/A     67  66  97 CALM      30.00F FOG
$$

LSZ147-162-210800-
LAKE SUPERIOR

STATION/POSITION TIME  TEMP    WIND        PRES    WAVE
                       AIR SEA DIR/SP/G            HT/PER
                 (UTC) (F)     (DEG/KT/KT) (MB)    (FT/S)
W MID LAKE BUOY  0650   57 47  250/  4/  6 1013.8F   0
DEVILS ISLAND    0700   69     230/  7/  7 1014.0F
PORT WING        0500   66     150/  2/  3 1014.6
SAXON HARBOR     0640   65     190/  4/  5 1013.9F
$$

LMZ867-665-643>646-210800-
LAKE MICHIGAN

STATION/POSITION TIME  TEMP    WIND        PRES    WAVE
                       AIR SEA DIR/SP/G            HT/PER
                 (UTC) (F)     (DEG/KT/KT) (MB)    (FT/S)
CHAMBERS ISLAND  0640   71      40/  4/  5 1013.5F
S GREEN BAY BUOY 0700   73 73   30/ 10/ 12 1014.0
N MID LAKE BUOY  0650   66 65  130/  2/  4 1015.0R   1/ 5
NORTHPORT PIER   0630   67      CALM  /  2 1014.2R
KEWAUNEE LAKESHO 0642          290/  4/  6 1013.2F
SHEBOYGAN LAKESH 0700   72     250/  5/  5 1014.2R
PORT WASHINGTON  0630   72     280/  3/  4 1015.9R
ATWATER BUOY     0609   70 68  190/  4/  6 1015.2R
MILWAUKEE LAKESH 0650   74     280/  2/  2   N/A
S MID LAKE BUOY  0650   70 70  340/  4/  4 1014.6F   0
KENOSHA   LAKESH 0700   74     260/  4/  5 1014.9
$$

TC  - TEMPERATURE IN CELSIUS
VSB - VISIBILITY IN STATUTE MILES
WCI - WIND CHILL INDEX
HX  - HEAT INDEX





USA.gov is the U.S. government's official web portal to all federal, state and local government web resources and services.